Overview Statistics Trail Chart Weather Telemetry Raw packets
 

This is the latest recevied weather packets stored in our database for station/object G6UIM-13. If no packets are shown the sender has not sent any weather packets the latest 10 day(s).

<< 123 124 125 126 127 128 >>
Time Temp. Humidity Pressure Rain* Wind** Luminosity Snow
1787790480 18.33° C 90% 1008.5 hPa 0 mm - - -
1787790207 18.33° C 90% 1008.6 hPa 0 mm - - -
1787789925 18.33° C 90% 1008.6 hPa 1.02 mm - - -
1787789645 18.89° C 90% 1008.7 hPa 1.52 mm - - -
1787789400 18.89° C 90% 1008.7 hPa 1.52 mm - - -
1787789150 18.89° C 90% 1008.7 hPa 1.52 mm - - -
1787788890 18.89° C 90% 1009 hPa 0 mm - - -
1787788625 18.89° C 89% 1009 hPa 1.02 mm - - -
1787788365 18.89° C 89% 1009.2 hPa 1.02 mm - - -
1787788105 18.89° C 89% 1009.3 hPa 1.02 mm - - -
1787787835 18.89° C 89% 1009.3 hPa 1.27 mm - - -
1787787595 18.89° C 89% 1009.2 hPa 1.27 mm - - -
1787787325 18.89° C 89% 1009.2 hPa 1.27 mm - - -
1787787055 18.89° C 89% 1009.1 hPa 2.03 mm - - -
1787786755 18.89° C 89% 1009.2 hPa 3.3 mm - - -
1787786460 18.89° C 89% 1009.3 hPa 0 mm - - -
1787786210 18.89° C 89% 1009.4 hPa 0 mm - - -
1787785910 18.89° C 89% 1009.4 hPa 0 mm - - -
1787785660 18.89° C 89% 1009.4 hPa 0 mm - - -
1787785419 18.89° C 89% 1009.4 hPa 0 mm - - -
1787785175 18.89° C 89% 1009.5 hPa 0 mm - - -
1787784894 18.89° C 89% 1009.6 hPa 0 mm - - -
1787784600 18.89° C 89% 1009.7 hPa 0 mm - - -
1787784355 18.89° C 89% 1009.7 hPa 0 mm - - -
1787784105 18.89° C 90% 1009.6 hPa 0 mm - - -

* Rain latest hour (hover to see other rain measurements)
** Current wind speed in m/s (hover to see current wind gust speed)